Location: Nakusp
(50.2330°N, 117.8000°W)
Time: 22:48:20
(UTC-07:00)

Cosmos 1939 Rocket - Visible Passes

Search period start: 18 September 2014 00:00
Search period end: 28 September 2014 00:00
Orbit: 541 x 595 km, 97.6° (Epoch: 18 September)

Date Brightness Start Highest point End Pass type
(mag) Time Alt. Az. Time Alt. Az. Time Alt. Az.
18 Sep 3.1 20:57:39 47° E 20:58:09 51° ENE 21:02:03 10° N visible
18 Sep 5.3 22:33:44 18° W 22:33:44 18° W 22:36:19 10° NW visible
19 Sep 3.0 20:58:58 50° E 20:59:18 52° ENE 21:03:13 10° N visible
19 Sep 5.4 22:35:04 17° W 22:35:04 17° W 22:37:25 10° NW visible
20 Sep 3.0 21:00:18 53° E 21:00:27 53° ENE 21:04:22 10° N visible
20 Sep 5.5 22:36:23 17° W 22:36:23 17° W 22:38:30 10° NW visible
21 Sep 3.0 21:01:37 55° ENE 21:01:37 55° ENE 21:05:31 10° N visible
21 Sep 5.5 22:37:42 16° WNW 22:37:42 16° WNW 22:39:36 10° NW visible
22 Sep 3.0 21:02:55 56° ENE 21:02:55 56° ENE 21:06:39 10° N visible
22 Sep 5.6 22:39:00 15° WNW 22:39:00 15° WNW 22:40:41 10° NW visible
23 Sep 3.1 21:04:14 55° NE 21:04:14 55° NE 21:07:48 10° N visible
23 Sep 5.7 22:40:19 14° WNW 22:40:19 14° WNW 22:41:45 10° NW visible
24 Sep 3.1 21:05:32 54° NE 21:05:32 54° NE 21:08:56 10° N visible
24 Sep 5.8 22:41:37 14° WNW 22:41:37 14° WNW 22:42:49 10° NW visible
25 Sep 3.3 21:06:50 51° NNE 21:06:50 51° NNE 21:10:03 10° N visible
25 Sep 5.8 22:42:55 13° WNW 22:42:55 13° WNW 22:43:52 10° NW visible
26 Sep 3.4 21:08:07 48° NNE 21:08:07 48° NNE 21:11:11 10° N visible
26 Sep 5.9 22:44:12 12° WNW 22:44:12 12° WNW 22:44:56 10° NW visible
27 Sep 3.6 21:09:24 45° NNE 21:09:24 45° NNE 21:12:18 10° N visible
27 Sep 6.0 22:45:29 11° WNW 22:45:29 11° WNW 22:45:58 10° WNW visible
